Location: fukui
(36.5979°N, 138.1641°E)
Time: 11:57:05
(UTC+09:00)

ISS - Visible Passes

Search period start: 12 December 2019 00:00
Search period end: 22 December 2019 00:00
Orbit: 411 x 421 km, 51.6° (Epoch: 12 December)

Date Brightness Start Highest point End Pass type
(mag) Time Alt. Az. Time Alt. Az. Time Alt. Az.
12 Dec -3.8 17:08:22 10° NW 17:11:43 86° NE 17:15:04 10° SE visible
13 Dec -0.6 17:57:35 10° W 17:59:37 15° SW 18:01:38 10° SSW visible
14 Dec -1.3 17:08:20 10° WNW 17:11:15 28° SW 17:14:09 10° SSE visible
20 Dec -0.5 05:47:29 10° SSE 05:49:24 15° SE 05:51:19 10° E visible
